Time,TemperatureF,DewpointF,PressureIn,WindDirection,WindDirectionDegrees,WindSpeedMPH,WindSpeedGustMPH,Humidity,HourlyPrecipIn,Conditions,Clouds,dailyrainin,SoftwareType,DateUTC
2013-02-13 00:01:00,34.0,23.0,-100.00,WSW,240,3.0,4.0,63,0.00,,,-99.99,,2013-02-13 05:01:00,
2013-02-13 00:11:00,34.0,23.0,-100.00,WSW,255,2.0,4.0,62,0.00,,,-99.99,,2013-02-13 05:11:00,
2013-02-13 00:22:00,33.0,23.0,-100.00,West,275,1.0,3.0,64,0.00,,,-99.99,,2013-02-13 05:22:00,
2013-02-13 00:32:00,33.0,23.0,-100.00,WNW,285,1.0,3.0,66,0.00,,,-99.99,,2013-02-13 05:32:00,
2013-02-13 00:42:00,31.0,22.0,-100.00,NW,320,1.0,2.0,69,0.00,,,-99.99,,2013-02-13 05:42:00,
2013-02-13 00:52:00,31.0,23.0,-100.00,NW,310,1.0,3.0,70,0.00,,,-99.99,,2013-02-13 05:52:00,
2013-02-13 01:02:00,32.0,23.0,-100.00,WNW,300,1.0,3.0,70,0.00,,,-99.99,,2013-02-13 06:02:00,
2013-02-13 01:11:00,32.0,23.0,-100.00,NW,305,1.0,2.0,69,0.00,,,-99.99,,2013-02-13 06:11:00,
2013-02-13 01:21:00,32.0,23.0,-100.00,WNW,290,2.0,3.0,70,0.00,,,-99.99,,2013-02-13 06:21:00,
2013-02-13 01:32:00,31.0,23.0,-100.00,WNW,300,1.0,3.0,71,0.00,,,-99.99,,2013-02-13 06:32:00,
2013-02-13 01:42:00,30.0,22.0,-100.00,WNW,300,1.0,2.0,72,0.00,,,-99.99,,2013-02-13 06:42:00,
2013-02-13 01:51:00,30.0,23.0,-100.00,NW,315,2.0,3.0,72,0.00,,,-99.99,,2013-02-13 06:51:00,
2013-02-13 02:02:00,30.0,23.0,-100.00,NNW,335,2.0,3.0,74,0.00,,,-99.99,,2013-02-13 07:02:00,
2013-02-13 02:11:00,30.0,23.0,-100.00,North,350,4.0,5.0,74,0.00,,,-99.99,,2013-02-13 07:11:00,
2013-02-13 02:22:00,29.0,23.0,-100.00,North,0,4.0,6.0,76,0.00,,,-99.99,,2013-02-13 07:22:00,
2013-02-13 02:32:00,29.0,23.0,-100.00,North,0,4.0,6.0,79,0.00,,,-99.99,,2013-02-13 07:32:00,
2013-02-13 02:42:00,29.0,23.0,-100.00,North,5,4.0,6.0,79,0.00,,,-99.99,,2013-02-13 07:42:00,
2013-02-13 02:51:00,29.0,24.0,-100.00,North,10,4.0,5.0,80,0.00,,,-99.99,,2013-02-13 07:51:00,
2013-02-13 03:01:00,29.0,24.0,-100.00,NNE,15,3.0,5.0,80,0.00,,,-99.99,,2013-02-13 08:01:00,
2013-02-13 03:11:00,29.0,23.0,-100.00,North,0,4.0,6.0,80,0.00,,,-99.99,,2013-02-13 08:11:00,
2013-02-13 03:21:00,29.0,24.0,-100.00,North,5,4.0,5.0,81,0.00,,,-99.99,,2013-02-13 08:21:00,
2013-02-13 03:32:00,28.0,23.0,-100.00,North,0,4.0,6.0,82,0.00,,,-99.99,,2013-02-13 08:32:00,
2013-02-13 03:43:00,28.0,23.0,-100.00,North,0,6.0,6.0,83,0.00,,,-99.99,,2013-02-13 08:43:00,
2013-02-13 03:52:00,27.0,23.0,-100.00,North,0,6.0,7.0,84,0.00,,,-99.99,,2013-02-13 08:52:00,
2013-02-13 04:02:00,28.0,24.0,-100.00,North,0,3.0,6.0,85,0.00,,,-99.99,,2013-02-13 09:02:00,
2013-02-13 04:11:00,28.0,24.0,-100.00,NNW,345,3.0,3.0,85,0.00,,,-99.99,,2013-02-13 09:11:00,
2013-02-13 04:21:00,28.0,24.0,-100.00,North,350,1.0,3.0,85,0.00,,,-99.99,,2013-02-13 09:21:00,
2013-02-13 04:32:00,28.0,24.0,-100.00,North,0,0.0,1.0,85,0.00,,,-99.99,,2013-02-13 09:32:00,
2013-02-13 04:42:00,28.0,24.0,-100.00,NNW,345,1.0,2.0,83,0.00,,,-99.99,,2013-02-13 09:42:00,
2013-02-13 04:51:00,28.0,24.0,-100.00,NNW,335,1.0,2.0,83,0.00,,,-99.99,,2013-02-13 09:51:00,
2013-02-13 05:01:00,28.0,24.0,-100.00,NNW,340,2.0,3.0,83,0.00,,,-99.99,,2013-02-13 10:01:00,
2013-02-13 05:11:00,28.0,24.0,-100.00,North,355,4.0,4.0,83,0.00,,,-99.99,,2013-02-13 10:11:00,
2013-02-13 05:21:00,28.0,23.0,-100.00,North,355,4.0,6.0,84,0.00,,,-99.99,,2013-02-13 10:21:00,
2013-02-13 05:32:00,27.0,23.0,-100.00,North,355,2.0,4.0,85,0.00,,,-99.99,,2013-02-13 10:32:00,
2013-02-13 05:42:00,27.0,23.0,-100.00,North,355,3.0,4.0,86,0.00,,,-99.99,,2013-02-13 10:42:00,
2013-02-13 05:51:00,27.0,24.0,-100.00,North,0,3.0,4.0,86,0.00,,,-99.99,,2013-02-13 10:51:00,
2013-02-13 06:01:00,28.0,24.0,-100.00,North,355,3.0,4.0,85,0.00,,,-99.99,,2013-02-13 11:01:00,
2013-02-13 06:11:00,28.0,24.0,-100.00,North,0,2.0,4.0,86,0.00,,,-99.99,,2013-02-13 11:11:00,
2013-02-13 06:22:00,28.0,24.0,-100.00,North,0,3.0,4.0,85,0.00,,,-99.99,,2013-02-13 11:22:00,
2013-02-13 06:32:00,28.0,24.0,-100.00,North,0,3.0,4.0,86,0.00,,,-99.99,,2013-02-13 11:32:00,
2013-02-13 06:42:00,27.0,24.0,-100.00,North,0,2.0,3.0,86,0.00,,,-99.99,,2013-02-13 11:42:00,
2013-02-13 06:52:00,27.0,24.0,-100.00,NNW,340,1.0,3.0,87,0.00,,,-99.99,,2013-02-13 11:52:00,
2013-02-13 07:02:00,27.0,24.0,-100.00,NNW,345,2.0,3.0,88,0.00,,,-99.99,,2013-02-13 12:02:00,
2013-02-13 07:11:00,27.0,24.0,-100.00,North,355,2.0,4.0,88,0.00,,,-99.99,,2013-02-13 12:11:00,
2013-02-13 07:22:00,27.0,24.0,-100.00,NNE,15,1.0,3.0,88,0.00,,,-99.99,,2013-02-13 12:22:00,
2013-02-13 07:32:00,27.0,24.0,-100.00,NNE,20,1.0,2.0,88,0.00,,,-99.99,,2013-02-13 12:32:00,
2013-02-13 07:42:00,27.0,24.0,-100.00,NNE,15,2.0,3.0,88,0.00,,,-99.99,,2013-02-13 12:42:00,
2013-02-13 07:52:00,28.0,24.0,-100.00,NNE,25,1.0,3.0,88,0.00,,,-99.99,,2013-02-13 12:52:00,
2013-02-13 08:02:00,27.0,24.0,-100.00,NNE,25,2.0,4.0,87,0.00,,,-99.99,,2013-02-13 13:02:00,
2013-02-13 08:11:00,28.0,24.0,-100.00,NNE,25,4.0,6.0,88,0.00,,,-99.99,,2013-02-13 13:11:00,
2013-02-13 08:21:00,28.0,24.0,-100.00,NNE,15,3.0,7.0,87,0.00,,,-99.99,,2013-02-13 13:21:00,
2013-02-13 08:32:00,28.0,24.0,-100.00,NNE,25,4.0,7.0,86,0.00,,,-99.99,,2013-02-13 13:32:00,
2013-02-13 08:42:00,28.0,24.0,-100.00,NE,40,4.0,7.0,86,0.00,,,-99.99,,2013-02-13 13:42:00,
2013-02-13 08:51:00,28.0,24.0,-100.00,NE,35,3.0,7.0,86,0.00,,,-99.99,,2013-02-13 13:51:00,
2013-02-13 09:01:00,28.0,24.0,-100.00,NE,35,3.0,6.0,85,0.00,,,-99.99,,2013-02-13 14:01:00,
2013-02-13 09:11:00,28.0,25.0,-100.00,North,0,3.0,4.0,86,0.00,,,-99.99,,2013-02-13 14:11:00,
2013-02-13 09:21:00,28.0,25.0,-100.00,North,0,4.0,6.0,87,0.00,,,-99.99,,2013-02-13 14:21:00,
2013-02-13 09:32:00,28.0,25.0,-100.00,North,5,5.0,7.0,87,0.00,,,-99.99,,2013-02-13 14:32:00,
2013-02-13 09:42:00,29.0,25.0,-100.00,North,10,4.0,9.0,87,0.00,,,-99.99,,2013-02-13 14:42:00,
2013-02-13 09:52:00,29.0,26.0,-100.00,NNE,30,4.0,8.0,87,0.00,,,-99.99,,2013-02-13 14:52:00,
2013-02-13 10:01:00,29.0,26.0,-100.00,North,0,2.0,5.0,86,0.00,,,-99.99,,2013-02-13 15:01:00,
2013-02-13 10:11:00,29.0,26.0,-100.00,NNW,345,6.0,7.0,86,0.00,,,-99.99,,2013-02-13 15:11:00,
2013-02-13 10:21:00,29.0,26.0,-100.00,North,0,7.0,9.0,87,0.00,,,-99.99,,2013-02-13 15:21:00,
2013-02-13 10:32:00,30.0,26.0,-100.00,North,0,5.0,11.0,86,0.00,,,-99.99,,2013-02-13 15:32:00,
2013-02-13 10:42:00,30.0,26.0,-100.00,North,0,3.0,7.0,85,0.00,,,-99.99,,2013-02-13 15:42:00,
2013-02-13 10:51:00,30.0,26.0,-100.00,North,5,3.0,6.0,84,0.00,,,-99.99,,2013-02-13 15:51:00,
2013-02-13 11:01:00,30.0,26.0,-100.00,North,0,3.0,5.0,84,0.00,,,-99.99,,2013-02-13 16:01:00,
2013-02-13 11:11:00,30.0,26.0,-100.00,NNW,345,4.0,6.0,84,0.00,,,-99.99,,2013-02-13 16:11:00,
2013-02-13 11:21:00,30.0,26.0,-100.00,North,0,6.0,8.0,84,0.00,,,-99.99,,2013-02-13 16:21:00,
2013-02-13 11:32:00,30.0,26.0,-100.00,North,355,4.0,9.0,84,0.00,,,-99.99,,2013-02-13 16:32:00,
2013-02-13 11:42:00,30.0,26.0,-100.00,North,0,6.0,8.0,84,0.00,,,-99.99,,2013-02-13 16:42:00,
2013-02-13 11:51:00,31.0,26.0,-100.00,NNW,345,5.0,8.0,84,0.00,,,-99.99,,2013-02-13 16:51:00,
2013-02-13 12:01:00,30.0,26.0,-100.00,North,0,5.0,7.0,83,0.00,,,-99.99,,2013-02-13 17:01:00,
2013-02-13 12:11:00,30.0,26.0,-100.00,North,0,3.0,6.0,83,0.00,,,-99.99,,2013-02-13 17:11:00,
2013-02-13 12:21:00,30.0,26.0,-100.00,ENE,60,0.0,4.0,82,0.00,,,-99.99,,2013-02-13 17:21:00,
2013-02-13 12:32:00,31.0,26.0,-100.00,SE,140,0.0,1.0,82,0.00,,,-99.99,,2013-02-13 17:32:00,
2013-02-13 12:42:00,31.0,26.0,-100.00,NNW,345,0.0,3.0,81,0.00,,,-99.99,,2013-02-13 17:42:00,
2013-02-13 12:52:00,31.0,26.0,-100.00,North,0,2.0,3.0,82,0.00,,,-99.99,,2013-02-13 17:52:00,
2013-02-13 13:02:00,31.0,26.0,-100.00,North,0,3.0,5.0,82,0.00,,,-99.99,,2013-02-13 18:02:00,
2013-02-13 13:11:00,31.0,26.0,-100.00,North,355,2.0,5.0,83,0.00,,,-99.99,,2013-02-13 18:11:00,
2013-02-13 13:23:00,31.0,26.0,-100.00,NNW,340,4.0,5.0,83,0.00,,,-99.99,,2013-02-13 18:23:00,
2013-02-13 13:32:00,31.0,26.0,-100.00,WNW,295,2.0,6.0,83,0.00,,,-99.99,,2013-02-13 18:32:00,
2013-02-13 13:42:00,31.0,26.0,-100.00,North,355,3.0,5.0,82,0.00,,,-99.99,,2013-02-13 18:42:00,
2013-02-13 13:52:00,31.0,26.0,-100.00,NNW,330,1.0,6.0,82,0.00,,,-99.99,,2013-02-13 18:52:00,
2013-02-13 14:01:00,31.0,26.0,-100.00,WNW,285,1.0,2.0,81,0.00,,,-99.99,,2013-02-13 19:01:00,
2013-02-13 14:11:00,31.0,26.0,-100.00,North,355,2.0,4.0,81,0.00,,,-99.99,,2013-02-13 19:11:00,
2013-02-13 14:21:00,31.0,26.0,-100.00,NW,315,4.0,6.0,82,0.00,,,-99.99,,2013-02-13 19:21:00,
2013-02-13 14:32:00,31.0,26.0,-100.00,NW,320,4.0,7.0,81,0.00,,,-99.99,,2013-02-13 19:32:00,
2013-02-13 14:42:00,31.0,26.0,-100.00,NW,325,6.0,7.0,81,0.00,,,-99.99,,2013-02-13 19:42:00,
2013-02-13 14:51:00,31.0,26.0,-100.00,NW,320,6.0,7.0,81,0.00,,,-99.99,,2013-02-13 19:51:00,
2013-02-13 15:02:00,31.0,26.0,-100.00,NW,320,5.0,7.0,81,0.00,,,-99.99,,2013-02-13 20:02:00,
2013-02-13 15:11:00,31.0,26.0,-100.00,NW,315,8.0,10.0,82,0.00,,,-99.99,,2013-02-13 20:11:00,
2013-02-13 15:21:00,31.0,26.0,-100.00,NW,320,10.0,12.0,83,0.00,,,-99.99,,2013-02-13 20:21:00,
2013-02-13 15:32:00,31.0,26.0,-100.00,NW,310,8.0,11.0,83,0.00,,,-99.99,,2013-02-13 20:32:00,
2013-02-13 15:42:00,31.0,26.0,-100.00,NW,315,8.0,11.0,83,0.00,,,-99.99,,2013-02-13 20:42:00,
2013-02-13 15:52:00,31.0,26.0,-100.00,NW,325,6.0,9.0,83,0.00,,,-99.99,,2013-02-13 20:52:00,
2013-02-13 16:02:00,31.0,26.0,-100.00,NW,310,6.0,8.0,82,0.00,,,-99.99,,2013-02-13 21:02:00,
2013-02-13 16:11:00,31.0,26.0,-100.00,WNW,300,6.0,9.0,82,0.00,,,-99.99,,2013-02-13 21:11:00,
2013-02-13 16:21:00,31.0,26.0,-100.00,NW,310,7.0,11.0,82,0.00,,,-99.99,,2013-02-13 21:21:00,
2013-02-13 16:32:00,31.0,26.0,-100.00,WNW,300,6.0,9.0,81,0.00,,,-99.99,,2013-02-13 21:32:00,
2013-02-13 16:42:00,31.0,26.0,-100.00,NW,320,6.0,10.0,80,0.00,,,-99.99,,2013-02-13 21:42:00,
2013-02-13 16:52:00,31.0,26.0,-100.00,NW,310,6.0,9.0,80,0.00,,,-99.99,,2013-02-13 21:52:00,
2013-02-13 17:02:00,31.0,26.0,-100.00,NW,325,5.0,9.0,78,0.00,,,-99.99,,2013-02-13 22:02:00,
2013-02-13 17:11:00,32.0,26.0,-100.00,WNW,290,6.0,9.0,78,0.00,,,-99.99,,2013-02-13 22:11:00,
2013-02-13 17:21:00,32.0,26.0,-100.00,NW,325,6.0,9.0,78,0.00,,,-99.99,,2013-02-13 22:21:00,
2013-02-13 17:32:00,32.0,26.0,-100.00,NNW,335,6.0,9.0,78,0.00,,,-99.99,,2013-02-13 22:32:00,
2013-02-13 17:42:00,31.0,26.0,-100.00,NW,310,3.0,6.0,79,0.00,,,-99.99,,2013-02-13 22:42:00,
2013-02-13 17:51:00,31.0,26.0,-100.00,WNW,295,2.0,7.0,78,0.00,,,-99.99,,2013-02-13 22:51:00,
2013-02-13 18:01:00,31.0,25.0,-100.00,WNW,295,4.0,6.0,78,0.00,,,-99.99,,2013-02-13 23:01:00,
2013-02-13 18:11:00,31.0,25.0,-100.00,NW,310,1.0,4.0,77,0.00,,,-99.99,,2013-02-13 23:11:00,
2013-02-13 18:21:00,31.0,25.0,-100.00,WNW,285,1.0,3.0,77,0.00,,,-99.99,,2013-02-13 23:21:00,
2013-02-13 18:32:00,31.0,25.0,-100.00,NW,305,1.0,4.0,78,0.00,,,-99.99,,2013-02-13 23:32:00,
2013-02-13 18:42:00,31.0,25.0,-100.00,West,280,2.0,5.0,78,0.00,,,-99.99,,2013-02-13 23:42:00,
2013-02-13 18:52:00,30.0,24.0,-100.00,West,260,1.0,3.0,79,0.00,,,-99.99,,2013-02-13 23:52:00,
2013-02-13 19:02:00,29.0,24.0,-100.00,West,270,2.0,4.0,80,0.00,,,-99.99,,2013-02-14 00:02:00,
2013-02-13 19:11:00,29.0,24.0,-100.00,WSW,255,1.0,4.0,81,0.00,,,-99.99,,2013-02-14 00:11:00,
2013-02-13 19:21:00,29.0,24.0,-100.00,West,260,1.0,6.0,82,0.00,,,-99.99,,2013-02-14 00:21:00,
2013-02-13 19:32:00,29.0,24.0,-100.00,WSW,250,3.0,5.0,83,0.00,,,-99.99,,2013-02-14 00:32:00,
2013-02-13 19:42:00,28.0,24.0,-100.00,West,260,2.0,6.0,83,0.00,,,-99.99,,2013-02-14 00:42:00,
2013-02-13 19:51:00,28.0,24.0,-100.00,West,270,2.0,5.0,84,0.00,,,-99.99,,2013-02-14 00:51:00,
2013-02-13 20:01:00,28.0,24.0,-100.00,West,275,2.0,6.0,84,0.00,,,-99.99,,2013-02-14 01:01:00,
2013-02-13 20:11:00,28.0,24.0,-100.00,WSW,255,1.0,4.0,85,0.00,,,-99.99,,2013-02-14 01:11:00,
2013-02-13 20:21:00,27.0,24.0,-100.00,WSW,255,2.0,6.0,85,0.00,,,-99.99,,2013-02-14 01:21:00,
2013-02-13 20:32:00,28.0,24.0,-100.00,West,260,4.0,7.0,86,0.00,,,-99.99,,2013-02-14 01:32:00,
2013-02-13 20:41:00,27.0,24.0,-100.00,West,275,3.0,6.0,86,0.00,,,-99.99,,2013-02-14 01:41:00,
2013-02-13 20:51:00,27.0,24.0,-100.00,WSW,255,4.0,7.0,86,0.00,,,-99.99,,2013-02-14 01:51:00,
2013-02-13 21:02:00,27.0,24.0,-100.00,West,270,4.0,7.0,87,0.00,,,-99.99,,2013-02-14 02:02:00,
2013-02-13 21:11:00,27.0,23.0,-100.00,West,270,3.0,6.0,87,0.00,,,-99.99,,2013-02-14 02:11:00,
2013-02-13 21:21:00,26.0,23.0,-100.00,West,265,2.0,4.0,87,0.00,,,-99.99,,2013-02-14 02:21:00,
2013-02-13 21:32:00,26.0,23.0,-100.00,West,275,2.0,5.0,88,0.00,,,-99.99,,2013-02-14 02:32:00,
2013-02-13 21:41:00,26.0,23.0,-100.00,West,275,2.0,5.0,88,0.00,,,-99.99,,2013-02-14 02:41:00,
2013-02-13 21:51:00,26.0,23.0,-100.00,West,275,2.0,5.0,88,0.00,,,-99.99,,2013-02-14 02:51:00,
2013-02-13 22:02:00,26.0,23.0,-100.00,WSW,240,4.0,6.0,89,0.00,,,-99.99,,2013-02-14 03:02:00,
2013-02-13 22:11:00,26.0,23.0,-100.00,WSW,240,4.0,6.0,89,0.00,,,-99.99,,2013-02-14 03:11:00,
2013-02-13 22:22:00,26.0,23.0,-100.00,WSW,240,4.0,6.0,90,0.00,,,-99.99,,2013-02-14 03:22:00,
2013-02-13 22:32:00,26.0,23.0,-100.00,WSW,240,4.0,6.0,90,0.00,,,-99.99,,2013-02-14 03:32:00,
2013-02-13 22:42:00,25.0,23.0,-100.00,SW,235,4.0,6.0,91,0.00,,,-99.99,,2013-02-14 03:42:00,
2013-02-13 22:51:00,26.0,23.0,-100.00,WSW,240,5.0,6.0,91,0.00,,,-99.99,,2013-02-14 03:51:00,
2013-02-13 23:01:00,26.0,23.0,-100.00,SW,235,4.0,6.0,91,0.00,,,-99.99,,2013-02-14 04:01:00,
2013-02-13 23:12:00,26.0,23.0,-100.00,SW,235,4.0,6.0,91,0.00,,,-99.99,,2013-02-14 04:12:00,
2013-02-13 23:21:00,26.0,23.0,-100.00,SW,235,4.0,6.0,90,0.00,,,-99.99,,2013-02-14 04:21:00,
2013-02-13 23:32:00,25.0,23.0,-100.00,SW,235,4.0,6.0,90,0.00,,,-99.99,,2013-02-14 04:32:00,
2013-02-13 23:41:00,25.0,23.0,-100.00,SW,235,5.0,7.0,91,0.00,,,-99.99,,2013-02-14 04:41:00,
2013-02-13 23:52:00,25.0,23.0,-100.00,SW,225,5.0,7.0,90,0.00,,,-99.99,,2013-02-14 04:52:00,